Robstown, TX

8:12 AM CDT on May 25, 2018 (GMT -0500)
Robstown

Weather History for KRBO - September, 2012

Change the Weather History Date:

Monday, September 3, 2012

  Actual Average (KCRP) Record (KCRP)
Temperature  
Mean Temperature 88 °F -  
Max Temperature 100 °F 90 °F 106 °F (2011)
Min Temperature 76 °F 72 °F 67 °F (1888)
Cooling Degree Days 23    
Growing Degree Days 38 (Base 50)    
Moisture  
Dew Point 74 °F    
Average Humidity 67    
Maximum Humidity 90    
Minimum Humidity 38    
Precipitation  
Precipitation 0.00 in - - ()
Sea Level Pressure  
Sea Level Pressure 29.95 in    
Wind  
Wind Speed 10 mph (SSE)    
Max Wind Speed 22 mph    
Max Gust Speed 28 mph    
Visibility 10 miles    
Events      
Averages and records for this station are not official NWS values.
T = Trace of Precipitation, MM = Missing Value Source: NWS Daily Summary

Daily Weather History Graph

Daily Weather History Graph

Search for Another Location

Airport or City:

Astronomy

Sep. 03, 2012 Rise Set
Actual Time 7:10 AM CDT 7:48 PM CDT
Civil Twilight 6:46 AM CDT 8:12 PM CDT
Nautical Twilight 6:19 AM CDT 8:40 PM CDT
Astronomical Twilight 5:50 AM CDT 9:08 PM CDT
Moon 9:33 PM CDT (9/3) 9:57 AM CDT (9/3)
Length of Visible Light 13h 25m
Length of Day
12h 37m
Waning Gibbous, 90% of the Moon is Illuminated
Sep 3
Waning Gibbous
Sep 8
Last Quarter
Sep 15
New
Sep 22
First Quarter
Sep 29
Full

Hourly Weather History & Observations

Time (CDT) Temp. Heat Index Dew Point Humidity Pressure Visibility Wind Dir Wind Speed Gust Speed Precip Events Conditions
12:15 AM 82.6 °F 90.2 °F 75.7 °F 80% 29.97 in 10.0 mi SSE 9.2 mph - N/A   Clear
12:35 AM 82.4 °F 90.1 °F 76.1 °F 81% 29.97 in 10.0 mi SE 8.1 mph - N/A   Clear
12:55 AM 82.2 °F 89.9 °F 76.3 °F 82% 29.97 in 10.0 mi SE 6.9 mph - N/A   Clear
1:15 AM 82.0 °F 89.7 °F 76.5 °F 83% 29.97 in 10.0 mi SSE 5.8 mph - N/A   Scattered Clouds
1:35 AM 82.0 °F 89.9 °F 76.8 °F 84% 29.97 in 10.0 mi SSE 8.1 mph - N/A   Scattered Clouds
1:55 AM 82.0 °F 89.9 °F 76.6 °F 84% 29.97 in 10.0 mi SSE 6.9 mph - N/A   Scattered Clouds
2:15 AM 81.9 °F 89.5 °F 76.5 °F 84% 29.96 in 10.0 mi SSE 5.8 mph - N/A   Scattered Clouds
2:35 AM 81.5 °F 88.5 °F 76.3 °F 84% 29.96 in 10.0 mi SSE 6.9 mph - N/A   Clear
2:55 AM 81.1 °F 87.8 °F 76.1 °F 85% 29.96 in 10.0 mi SSE 6.9 mph - N/A   Clear
3:15 AM 80.6 °F 86.4 °F 75.6 °F 85% 29.96 in 10.0 mi SSE 5.8 mph - N/A   Clear
3:35 AM 80.2 °F 85.5 °F 75.2 °F 85% 29.96 in 10.0 mi SSE 4.6 mph - N/A   Clear
3:55 AM 79.7 °F - 74.7 °F 84% 29.96 in 10.0 mi SSE 4.6 mph - N/A   Clear
4:15 AM 79.7 °F - 74.7 °F 84% 29.96 in 10.0 mi South 4.6 mph - N/A   Clear
4:35 AM 79.0 °F - 74.7 °F 87% 29.97 in 10.0 mi SSE 3.5 mph - N/A   Clear
4:55 AM 78.8 °F - 74.5 °F 87% 29.96 in 10.0 mi SSE 3.5 mph - N/A   Scattered Clouds
5:15 AM 78.3 °F - 74.3 °F 88% 29.97 in 10.0 mi SSE 3.5 mph - N/A   Scattered Clouds
5:35 AM 77.9 °F - 74.3 °F 89% 29.97 in 10.0 mi SSE 3.5 mph - N/A   Clear
5:55 AM 77.9 °F - 74.3 °F 89% 29.97 in 10.0 mi Calm Calm - N/A   Scattered Clouds
6:15 AM 76.6 °F - 73.0 °F 89% 29.97 in 10.0 mi SSE 3.5 mph - N/A   Clear
6:35 AM 76.8 °F - 73.4 °F 89% 29.98 in 7.0 mi Calm Calm - N/A   Clear
6:55 AM 76.3 °F - 73.0 °F 90% 29.98 in 7.0 mi Calm Calm - N/A   Clear
7:15 AM 76.1 °F - 72.9 °F 90% 29.99 in 7.0 mi SE 3.5 mph - N/A   Scattered Clouds
7:35 AM 76.1 °F - 73.0 °F 90% 29.99 in 7.0 mi SE 3.5 mph - N/A   Clear
7:55 AM 77.5 °F - 74.1 °F 89% 29.99 in 7.0 mi SE 3.5 mph - N/A   Clear
8:15 AM 80.8 °F 87.1 °F 76.1 °F 86% 29.99 in 10.0 mi SSE 5.8 mph - N/A   Clear
8:35 AM 83.3 °F 92.1 °F 76.6 °F 80% 29.99 in 10.0 mi SSE 9.2 mph - N/A   Clear
8:55 AM 84.7 °F 94.4 °F 76.5 °F 76% 30.00 in 10.0 mi SSE 12.7 mph - N/A   Clear
9:15 AM 86.0 °F 95.5 °F 75.7 °F 71% 30.00 in 10.0 mi South 16.1 mph 21.9 mph N/A   Clear
9:35 AM 87.8 °F 97.6 °F 75.0 °F 66% 30.00 in 10.0 mi South 17.3 mph 20.7 mph N/A   Scattered Clouds
9:55 AM 88.3 °F 97.9 °F 74.8 °F 64% 30.01 in 10.0 mi SSE 16.1 mph 20.7 mph N/A   Clear
10:15 AM 90.0 °F 99.0 °F 73.9 °F 59% 30.00 in 10.0 mi SSE 18.4 mph - N/A   Clear
10:35 AM 91.2 °F 100.2 °F 73.8 °F 56% 30.01 in 10.0 mi South 16.1 mph 23.0 mph N/A   Clear
10:55 AM 92.1 °F 101.7 °F 73.9 °F 55% 30.00 in 10.0 mi South 18.4 mph 21.9 mph N/A   Scattered Clouds
11:15 AM 93.6 °F 102.5 °F 72.9 °F 51% 30.00 in 10.0 mi South 16.1 mph 24.2 mph N/A   Scattered Clouds
11:35 AM 94.1 °F 103.1 °F 72.7 °F 50% 29.99 in 10.0 mi SSE 11.5 mph 21.9 mph N/A   Scattered Clouds
11:55 AM 94.3 °F 102.2 °F 72.0 °F 48% 29.99 in 10.0 mi South 15.0 mph 23.0 mph N/A   Scattered Clouds
12:15 PM 95.0 °F 103.2 °F 71.6 °F 47% 29.99 in 10.0 mi South 15.0 mph 19.6 mph N/A   Scattered Clouds
12:35 PM 96.4 °F 105.0 °F 72.1 °F 45% 29.99 in 10.0 mi South 16.1 mph - N/A   Clear
12:55 PM 96.6 °F 105.4 °F 72.0 °F 45% 29.97 in 10.0 mi SSE 13.8 mph 21.9 mph N/A   Clear
1:15 PM 98.4 °F 106.5 °F 70.9 °F 41% 29.97 in 10.0 mi SSE 10.4 mph 20.7 mph N/A   Scattered Clouds
1:35 PM 98.8 °F 107.3 °F 71.2 °F 41% 29.96 in 10.0 mi South 9.2 mph 23.0 mph N/A   Scattered Clouds
1:55 PM 99.1 °F 108.1 °F 71.4 °F 41% 29.95 in 10.0 mi SSE 15.0 mph 20.7 mph N/A   Scattered Clouds
2:15 PM 99.9 °F 107.4 °F 70.3 °F 38% 29.94 in 10.0 mi South 16.1 mph 19.6 mph N/A   Scattered Clouds
2:35 PM 100.4 °F 108.6 °F 70.7 °F 38% 29.93 in 10.0 mi South 17.3 mph 21.9 mph N/A   Scattered Clouds
2:55 PM 100.0 °F 110.2 °F 72.5 °F 41% 29.93 in 10.0 mi South 11.5 mph 19.6 mph N/A   Scattered Clouds
3:15 PM 99.5 °F 108.9 °F 71.8 °F 41% 29.92 in 10.0 mi SSE 8.1 mph 21.9 mph N/A   Scattered Clouds
3:35 PM 99.7 °F 108.5 °F 71.2 °F 40% 29.91 in 10.0 mi SSE 12.7 mph 21.9 mph N/A   Scattered Clouds
3:55 PM 98.4 °F 108.0 °F 72.3 °F 43% 29.90 in 10.0 mi SSE 16.1 mph 26.5 mph N/A   Scattered Clouds
4:15 PM 98.8 °F 109.7 °F 73.6 °F 44% 29.90 in 10.0 mi SSE 12.7 mph 21.9 mph N/A   Scattered Clouds
4:35 PM 97.7 °F 109.5 °F 74.3 °F 47% 29.89 in 10.0 mi SE 17.3 mph 24.2 mph N/A   Scattered Clouds
4:55 PM 97.3 °F 109.4 °F 74.8 °F 48% 29.89 in 10.0 mi SSE 17.3 mph 24.2 mph N/A   Clear
5:15 PM 96.1 °F 108.6 °F 75.0 °F 51% 29.88 in 10.0 mi SE 18.4 mph 23.0 mph N/A   Clear
5:35 PM 95.5 °F 107.3 °F 74.8 °F 51% 29.88 in 10.0 mi SE 18.4 mph 24.2 mph N/A   Clear
5:55 PM 94.6 °F 105.8 °F 74.7 °F 52% 29.88 in 10.0 mi SE 18.4 mph - N/A   Clear
6:15 PM 93.6 °F 104.5 °F 74.5 °F 54% 29.87 in 10.0 mi SE 19.6 mph 25.3 mph N/A   Clear
6:35 PM 92.7 °F 101.7 °F 73.4 °F 53% 29.88 in 10.0 mi SE 21.9 mph 27.6 mph N/A   Clear
6:55 PM 91.8 °F 99.7 °F 72.7 °F 53% 29.88 in 10.0 mi SE 19.6 mph 25.3 mph N/A   Clear
7:15 PM 90.5 °F 98.1 °F 72.1 °F 55% 29.88 in 10.0 mi SE 19.6 mph 25.3 mph N/A   Clear
7:35 PM 88.9 °F 96.6 °F 72.9 °F 59% 29.88 in 10.0 mi SSE 20.7 mph - N/A   Clear
7:55 PM 87.6 °F 96.2 °F 73.9 °F 64% 29.89 in 10.0 mi SE 20.7 mph 27.6 mph N/A   Clear
8:15 PM 86.7 °F 95.5 °F 74.5 °F 67% 29.90 in 10.0 mi SE 21.9 mph - N/A   Clear
8:35 PM 86.0 °F 95.1 °F 75.2 °F 70% 29.91 in 10.0 mi SE 20.7 mph 25.3 mph N/A   Clear
8:55 PM 85.1 °F 94.9 °F 76.3 °F 75% 29.92 in 10.0 mi SSE 16.1 mph - N/A   Clear
9:15 PM 84.7 °F 94.4 °F 76.5 °F 76% 29.92 in 10.0 mi SSE 18.4 mph 24.2 mph N/A   Clear
9:35 PM 84.6 °F 94.3 °F 76.5 °F 77% 29.93 in 10.0 mi SSE 17.3 mph 23.0 mph N/A   Clear
9:55 PM 84.4 °F 94.2 °F 77.0 °F 78% 29.94 in 10.0 mi SSE 16.1 mph 25.3 mph N/A   Clear
10:15 PM 84.2 °F 93.4 °F 76.5 °F 77% 29.94 in 10.0 mi SSE 18.4 mph 24.2 mph N/A   Clear
10:35 PM 84.2 °F 93.4 °F 76.1 °F 77% 29.94 in 10.0 mi SSE 17.3 mph 21.9 mph N/A   Clear
10:55 PM 84.2 °F 92.6 °F 75.4 °F 75% 29.95 in 10.0 mi SSE 18.4 mph 21.9 mph N/A   Clear
11:15 PM 83.8 °F 92.1 °F 75.6 °F 76% 29.95 in 10.0 mi SSE 15.0 mph - N/A   Clear
11:35 PM 83.7 °F 92.0 °F 75.7 °F 77% 29.95 in 10.0 mi SSE 12.7 mph 18.4 mph N/A   Clear
11:55 PM 83.3 °F 91.4 °F 75.7 °F 78% 29.95 in 10.0 mi SSE 16.1 mph - N/A   Clear